Terminal Aerodrome Forecast
Issued by NWS Sterling, VA

Current Version | Previous Version | Graphics & Text | Print | Product List | Glossary On
Versions: 1 2 3 4 5 6 7 8 9 10 11 12 13 14 15 16 17 18 19 20
419
FTUS41 KLWX 200717 AAA
TAFMRB
TAF AMD
KMRB 200717Z 2007/2106 17004KT 4SM BR BKN060 WS020/23040KT
      TEMPO 2007/2011 2SM BR
     FM201200 20005KT 6SM BR BKN250
     FM201700 20009KT P6SM SCT250
     FM210500 20005KT P6SM SCT250=

USA.gov is the U.S. government's official web portal to all federal, state and local government web resources and services.